Location: Arbon
(43.0005°N, 0.7472°E)
Time: 09:16:43
(UTC+00:00)

Vanguard 2 Rocket - Pass Details

Date: 04 December 2020
Orbit: 554 x 3325 km, 32.9° (Epoch: 21 January)

Event Time Altitude Azimuth Distance (km) Brightness Sun altitude
Rises 12:29:10 0° 280° (W) 7,229 11.5 24.0°
Reaches altitude 10° 12:35:19 10° 271° (W) 5,988 11.3 23.7°
Maximum altitude 12:48:44 28° 222° (SW) 3,826 11.5 23.2°
Drops below altitude 10° 12:58:15 10° 169° (S) 4,162 11.5 22.7°
Sets 13:01:38 0° 157° (SSE) 4,769 11.3 22.5°
